Ceiba, PR

7:19 AM AST on December 10, 2016 (GMT -0400)
Roosevelt Roads Ns

Weather History for TJNR - November, 2012

Change the Weather History Date:

Tuesday, November 20, 2012

  Actual Average Record
Temperature  
Mean Temperature 78 °F -  
Max Temperature 82 °F 83 °F 88 °F (2006)
Min Temperature 75 °F 70 °F 69 °F (2001)
Cooling Degree Days 14    
Growing Degree Days 28 (Base 50)    
Moisture  
Dew Point 76 °F    
Average Humidity 92    
Maximum Humidity 100    
Minimum Humidity 79    
Precipitation  
Precipitation 0.40 in - - ()
Sea Level Pressure  
Sea Level Pressure 29.86 in    
Wind  
Wind Speed 5 mph (SW)    
Max Wind Speed 13 mph    
Max Gust Speed -    
Visibility 8 miles    
Events Rain    
Averages and records for this station are not official NWS values.
T = Trace of Precipitation, MM = Missing Value Source: NWS Daily Summary

Daily Weather History Graph

Daily Weather History Graph

Search for Another Location

Airport or City:

Trip Planner

Search our weather history database for the weather conditions in past years. The results will help you decide how hot, cold, wet, or windy it might be!

Date:

Astronomy

Nov. 20, 2012 Rise Set
Actual Time 6:31 AM AST 5:44 PM AST
Civil Twilight 6:08 AM AST 6:07 PM AST
Nautical Twilight 5:42 AM AST 6:34 PM AST
Astronomical Twilight 5:15 AM AST 7:00 PM AST
Moon 12:32 PM AST (11/20) No Moon Set
Length of Visible Light 11h 59m
Length of Day
11h 12m
Waxing Crescent, 51% of the Moon is Illuminated
Nov 20
Waxing Crescent
Nov 28
Full
Dec 6
Last Quarter
Dec 13
New
Dec 20
First Quarter

Hourly Weather History & Observations

Time (AST) Temp. Heat Index Dew Point Humidity Pressure Visibility Wind Dir Wind Speed Gust Speed Precip Events Conditions
12:53 AM 78.1 °F - 75.9 °F 93% 29.87 in 10.0 mi SSW 5.8 mph - N/A   Mostly Cloudy
1:53 AM 77.0 °F - 75.0 °F 94% 29.86 in 10.0 mi West 6.9 mph - N/A   Overcast
2:14 AM 77.0 °F - 75.2 °F 94% 29.84 in 10.0 mi West 5.8 mph - 0.00 in Rain Light Rain
2:53 AM 77.0 °F - 75.0 °F 94% 29.83 in 10.0 mi West 3.5 mph - 0.01 in   Mostly Cloudy
3:53 AM 75.9 °F - 75.0 °F 97% 29.82 in 10.0 mi WSW 6.9 mph - N/A   Overcast
4:53 AM 75.9 °F - 73.9 °F 94% 29.83 in 10.0 mi Calm Calm - N/A   Overcast
5:18 AM 77.0 °F - 75.2 °F 94% 29.83 in 10.0 mi Calm Calm - N/A   Overcast
5:53 AM 75.9 °F - 75.0 °F 97% 29.83 in 10.0 mi Calm Calm - N/A   Mostly Cloudy
6:11 AM 75.2 °F - 75.2 °F 100% 29.84 in 10.0 mi Calm Calm - N/A   Mostly Cloudy
6:25 AM 77.0 °F - 75.2 °F 94% 29.85 in 10.0 mi SE 6.9 mph - N/A   Mostly Cloudy
6:32 AM 77.0 °F - 75.2 °F 94% 29.85 in 10.0 mi SE 6.9 mph - N/A   Mostly Cloudy
6:53 AM 75.9 °F - 75.0 °F 97% 29.86 in 2.5 mi SSE 10.4 mph - 0.07 in Rain Light Rain
6:59 AM 77.0 °F - 75.2 °F 94% 29.86 in 4.0 mi SSE 8.1 mph - 0.00 in Rain Light Rain
7:53 AM 77.0 °F - 75.0 °F 94% 29.88 in 10.0 mi Calm Calm - 0.00 in   Overcast
8:03 AM 77.0 °F - 75.2 °F 94% 29.88 in 10.0 mi Calm Calm - N/A   Mostly Cloudy
8:25 AM 78.8 °F - 75.2 °F 89% 29.89 in 10.0 mi Variable 3.5 mph - N/A   Mostly Cloudy
8:53 AM 80.1 °F 85.4 °F 75.9 °F 87% 29.90 in 10.0 mi South 3.5 mph - N/A   Overcast
9:23 AM 80.6 °F 87.1 °F 77.0 °F 89% 29.90 in 10.0 mi SSE 4.6 mph - N/A   Overcast
9:53 AM 79.0 °F - 75.9 °F 90% 29.90 in 6.0 mi SW 4.6 mph - 0.01 in Rain Light Rain
10:32 AM 78.8 °F - 77.0 °F 94% 29.90 in 1.8 mi WSW 5.8 mph - 0.07 in Rain Rain
10:40 AM 78.8 °F - 77.0 °F 94% 29.90 in 3.0 mi SW 9.2 mph - 0.09 in Rain Light Rain
10:53 AM 79.0 °F - 77.0 °F 94% 29.90 in 9.0 mi SW 10.4 mph - 0.09 in Rain Light Rain
11:24 AM 78.8 °F - 75.2 °F 89% 29.89 in 5.0 mi WSW 5.8 mph - 0.03 in Rain Light Rain
11:44 AM 77.0 °F - 75.2 °F 94% 29.88 in 4.0 mi WSW 6.9 mph - 0.05 in Rain Light Rain
11:53 AM 79.0 °F - 77.0 °F 94% 29.87 in 6.0 mi West 4.6 mph - 0.06 in Rain Light Rain
12:01 PM 78.8 °F - 75.2 °F 89% 29.87 in 10.0 mi WSW 5.8 mph - 0.00 in   Overcast
12:08 PM 78.8 °F - 75.2 °F 89% 29.86 in 6.0 mi SW 8.1 mph - 0.01 in Rain Light Rain
12:12 PM 78.8 °F - 77.0 °F 94% 29.86 in 1.8 mi SW 8.1 mph - 0.04 in Rain Rain
12:22 PM 78.8 °F - 75.2 °F 89% 29.86 in 3.0 mi SSW 12.7 mph - 0.05 in Rain Light Rain
12:31 PM 78.8 °F - 75.2 °F 89% 29.85 in 6.0 mi SW 10.4 mph - 0.05 in Rain Light Rain
12:53 PM 79.0 °F - 77.0 °F 94% 29.84 in 8.0 mi SSW 5.8 mph - 0.06 in   Overcast
1:53 PM 81.0 °F 87.9 °F 77.0 °F 88% 29.83 in 10.0 mi SSW 8.1 mph - N/A   Overcast
2:53 PM 81.0 °F 87.9 °F 77.0 °F 88% 29.81 in 10.0 mi SW 10.4 mph - 0.01 in   Overcast
3:53 PM 82.9 °F 90.8 °F 75.9 °F 79% 29.81 in 10.0 mi SSW 9.2 mph - N/A   Mostly Cloudy
4:53 PM 81.0 °F 86.7 °F 75.0 °F 82% 29.81 in 10.0 mi SSW 6.9 mph - N/A   Overcast
5:28 PM 78.8 °F - 77.0 °F 94% 29.82 in 2.5 mi SW 9.2 mph - 0.06 in Rain Light Rain
5:36 PM 78.8 °F - 75.2 °F 89% 29.83 in 5.0 mi SW 11.5 mph - 0.07 in Rain Light Rain
5:53 PM 77.0 °F - 75.0 °F 94% 29.82 in 10.0 mi WSW 6.9 mph - 0.09 in Rain Light Rain
6:53 PM 77.0 °F - 73.9 °F 90% 29.84 in 10.0 mi West 4.6 mph - 0.00 in   Overcast
7:53 PM 77.0 °F - 75.0 °F 94% 29.85 in 10.0 mi WSW 3.5 mph - N/A   Partly Cloudy
8:53 PM 77.0 °F - 75.0 °F 94% 29.86 in 10.0 mi Calm Calm - N/A   Overcast
9:53 PM 75.9 °F - 75.0 °F 97% 29.86 in 10.0 mi WSW 3.5 mph - N/A   Partly Cloudy
10:53 PM 75.9 °F - 75.0 °F 97% 29.87 in 10.0 mi Calm Calm - N/A   Clear
11:53 PM 75.0 °F - 73.9 °F 96% 29.86 in 10.0 mi Calm Calm - N/A   Clear